Location: San Martino di Castrozza
(46.2667°N, 11.8000°E)
Time: 03:22:43
(UTC+00:00)

Resurs 1-4 Rocket - Pass Details

Date: 23 April 2021
Orbit: 799 x 815 km, 98.6° (Epoch: 15 May)

Event Time Altitude Azimuth Distance (km) Brightness Sun altitude
Rises 01:44:08 0° 7° (N) 3,324 6.2 -21.9°
Reaches altitude 10° 01:46:38 10° 359° (N) 2,388 5.2 -21.6°
Maximum altitude 01:51:24 36° 294° (WNW) 1,247 2.9 -21.1°
Enters shadow 01:52:30 33° 268° (W) 1,332 2.9 -20.9°
